Location: Songkhla
(7.2000°N, 100.6000°E)
Time: 20:07:46
(UTC+07:00)

ISS - Visible Passes

Search period start: 03 August 2020 00:00
Search period end: 13 August 2020 00:00
Orbit: 419 x 420 km, 51.6° (Epoch: 04 August)

Date Brightness Start Highest point End Pass type
(mag) Time Alt. Az. Time Alt. Az. Time Alt. Az.
08 Aug -1.4 20:12:46 10° NNW 20:13:50 18° N 20:13:50 18° N visible
09 Aug -1.8 19:26:07 10° NNE 19:28:14 16° NE 19:28:39 15° ENE visible
10 Aug -2.1 20:14:10 10° NW 20:16:34 32° W 20:16:34 32° W visible
11 Aug -3.9 19:26:23 10° NW 19:29:43 85° NE 19:31:34 24° SE visible
